User: anonymous   Login
Location: Dayton
(39.7590°N, 84.1920°W)
Time: 13:15:46
(UTC-05:00)
Language:

Cosmos 1939 Rocket - Orbit

View from above orbital plane
View from above orbital plane
View from above satellite
View from above satellite

Ground track
Ground track

The orbit data is extracted from the following two-line orbital elements,

1 19046U 88032B   17022.18403990 -.00000305  00000-0 -18187-4 0  9996
2 19046  97.5535  73.1642 0042255 103.7313 256.8621 15.02134159550725
Epoch (UTC): 22 January 2017 04:25:01
Eccentricity: 0.0042255
inclination: 97.5535°
perigee height: 531 km
apogee height: 589 km
right ascension of ascending node: 73.1642°
argument of perigee: 103.7313°
revolutions per day: 15.02134159
mean anomaly at epoch: 256.8621°
orbit number at epoch: 55072

The dashed part of the orbit path shows where the satellite is in the earth's shadow,  

DLR